Location: Chillicothe
(39.7950°N, 93.5520°W)
Time: 14:47:53
(UTC-05:00)

S-56A Canister/Altair - All Passes

Search period start: 20 October 2019 00:00
Search period end: 30 October 2019 00:00
Orbit: 633 x 2499 km, 38.9° (Epoch: 18 October)

Date Brightness Start Highest point End Pass type
(mag) Time Alt. Az. Time Alt. Az. Time Alt. Az.
20 Oct - 02:57:41 10° SSW 03:02:46 37° SE 03:09:54 10° E visible
20 Oct - 04:59:53 10° WSW 05:06:30 80° S 05:16:50 10° E visible
20 Oct - 07:03:15 10° W 07:11:35 80° S 07:24:18 10° ESE visible
20 Oct - 09:07:14 10° W 09:17:04 51° SSW 09:30:31 10° SE daylight
20 Oct - 11:13:34 10° W 11:22:15 22° SW 11:32:15 10° S daylight
21 Oct - 02:25:38 10° SSW 02:30:14 31° SE 02:36:25 10° E visible
21 Oct - 04:27:30 10° WSW 04:33:40 77° SSE 04:43:11 10° E visible
21 Oct - 06:30:44 10° W 06:38:30 82° S 06:50:30 10° ESE visible
21 Oct - 08:34:30 10° W 08:43:49 54° SSW 08:57:01 10° SE daylight
21 Oct - 10:40:13 10° W 10:49:01 25° SW 10:59:32 10° S daylight
22 Oct - 01:53:38 10° SSW 01:57:44 25° SE 02:02:57 10° E visible
22 Oct - 03:55:09 10° WSW 04:00:54 72° SSE 04:09:37 10° E visible
22 Oct - 05:58:16 10° W 06:05:29 83° S 06:16:44 10° E visible
22 Oct - 08:01:51 10° W 08:10:37 57° SSW 08:23:25 10° SE daylight
22 Oct - 10:07:03 10° W 10:15:48 27° SW 10:26:38 10° SSE daylight
23 Oct - 01:21:46 10° S 01:25:17 20° SE 01:29:29 10° E night (unlit)
23 Oct - 03:22:50 10° WSW 03:28:12 66° SSE 03:36:08 10° E visible
23 Oct - 05:25:49 10° W 05:32:32 84° S 05:43:01 10° E visible
23 Oct - 07:29:15 10° W 07:37:30 60° SSW 07:49:48 10° SE daylight
23 Oct - 09:34:02 10° W 09:42:37 29° SW 09:53:36 10° SSE daylight
24 Oct - 00:50:05 10° S 00:52:51 15° SE 00:55:57 10° ESE night (unlit)
24 Oct - 02:50:33 10° WSW 02:55:35 59° SSE 03:02:46 10° E visible
24 Oct - 04:53:25 10° W 04:59:40 85° S 05:09:21 10° E visible
24 Oct - 06:56:43 10° W 07:04:26 63° SSW 07:16:10 10° ESE visible
24 Oct - 09:01:08 10° W 09:09:27 31° SSW 09:20:28 10° SSE daylight
25 Oct - 00:18:48 10° SSE 00:20:24 12° SE 00:22:06 10° ESE night (unlit)
25 Oct - 02:18:16 10° SW 02:23:00 52° SSE 02:29:29 10° E visible
25 Oct - 04:21:01 10° W 04:26:51 85° S 04:35:46 10° E visible
25 Oct - 06:24:14 10° W 06:31:26 66° SSW 06:42:32 10° ESE visible
25 Oct - 08:28:20 10° W 08:36:20 34° SSW 08:47:14 10° SSE daylight
25 Oct - 10:39:40 10° SW 10:41:07 10° SW 10:42:36 10° SW daylight
26 Oct - 01:46:01 10° SW 01:50:28 44° SSE 01:56:17 10° E night (unlit)
26 Oct - 03:48:39 10° W 03:54:06 84° S 04:02:17 10° E visible
26 Oct - 05:51:47 10° W 05:58:31 68° SSW 06:08:55 10° ESE visible
26 Oct - 07:55:38 10° W 08:03:15 36° SSW 08:13:57 10° SSE daylight
26 Oct - 10:04:22 10° WSW 10:08:02 12° SW 10:12:02 10° SSW daylight
27 Oct - 01:13:46 10° SW 01:17:58 37° SSE 01:23:10 10° E night (unlit)
27 Oct - 03:16:17 10° W 03:21:24 82° S 03:28:53 10° E visible
27 Oct - 05:19:22 10° W 05:25:39 71° SSW 05:35:20 10° ESE visible
27 Oct - 07:23:01 10° W 07:30:15 38° SSW 07:40:37 10° SSE daylight
27 Oct - 09:30:25 10° WSW 09:34:58 14° SW 09:40:09 10° SSW daylight
28 Oct - 00:41:33 10° SSW 00:45:30 31° SSE 00:50:07 10° E night (unlit)
28 Oct - 02:43:55 10° WSW 02:48:47 79° S 02:55:36 10° E visible
28 Oct - 04:46:59 10° W 04:52:51 74° SSW 05:01:49 10° ESE visible
28 Oct - 06:50:26 10° W 06:57:17 40° SSW 07:07:15 10° SE visible
28 Oct - 08:56:55 10° WSW 09:01:56 15° SW 09:07:50 10° S daylight
29 Oct - 00:09:20 10° SSW 00:13:03 26° SSE 00:17:07 10° E night (unlit)
29 Oct - 02:11:32 10° WSW 02:16:11 74° S 02:22:25 10° E visible
29 Oct - 04:14:36 10° W 04:20:06 76° S 04:28:21 10° ESE visible
29 Oct - 06:17:56 10° W 06:24:23 42° SSW 06:33:52 10° SE visible
29 Oct - 08:23:43 10° WSW 08:28:57 17° SW 08:35:16 10° S daylight
29 Oct - 23:37:10 10° SSW 23:40:35 22° SSE 23:44:09 10° E night (unlit)
